Location: Cisewo
(53.3833°N, 14.9000°E)
Time: 12:39:13
(UTC+00:00)

USA 229 - Pass Details

Date: 02 August 2021
Orbit: 956 x 1256 km, 63.5° (Epoch: 08 August)

Event Time Altitude Azimuth Distance (km) Brightness Sun altitude
Rises 21:05:50 0° 312° (NW) 3,932 8.2 -14.5°
Reaches altitude 10° 21:08:27 10° 310° (NW) 3,014 7.2 -14.7°
Maximum altitude 21:15:37 67° 230° (SW) 1,276 4.0 -15.2°
Enters shadow 21:20:55 21° 154° (SSE) 2,413 4.9 -15.5°
